This is the latest recevied weather packets stored in our database for station/object VK4SSH. If no packets are shown the sender has not sent any weather packets the latest 10 day(s).
| Time | Temp. | Humidity | Pressure | Rain* | Wind** | Luminosity | Snow |
|---|---|---|---|---|---|---|---|
| 1777516526 | 23.89° C | 72% | - | 0 mm | - | - | - |
| 1777515926 | 23.89° C | 67% | - | 0 mm | - | - | - |
| 1777515326 | 23.89° C | 68% | - | 0 mm | - | - | - |
| 1777514726 | 23.33° C | 69% | - | 0 mm | - | - | - |
| 1777514126 | 22.78° C | 70% | - | 0 mm | - | - | - |
| 1777513526 | 22.78° C | 72% | - | 0 mm | - | - | - |
| 1777512926 | 22.78° C | 74% | - | 0 mm | - | - | - |
| 1777512326 | 23.33° C | 72% | - | 0 mm | - | - | - |
| 1777511726 | 22.78° C | 72% | - | 0 mm | - | - | - |
| 1777511126 | 23.33° C | 72% | - | 0 mm | - | - | - |
| 1777510526 | 23.33° C | 71% | - | 0 mm | - | - | - |
| 1777509926 | 22.78° C | 72% | - | 0 mm | - | - | - |
| 1777509326 | 22.78° C | 75% | - | 0 mm | - | - | - |
| 1777508726 | 22.78° C | 76% | - | 0 mm | - | - | - |
| 1777508126 | 22.78° C | 74% | - | 0 mm | - | - | - |
| 1777507526 | 22.78° C | 76% | - | 0 mm | - | - | - |
| 1777506926 | 22.78° C | 75% | - | 0 mm | - | - | - |
| 1777506326 | 22.78° C | 74% | - | 0 mm | - | - | - |
| 1777505726 | 22.22° C | 75% | - | 0 mm | - | - | - |
| 1777505126 | 21.67° C | 76% | - | 0 mm | - | - | - |
| 1777504526 | 21.11° C | 80% | - | 0 mm | - | - | - |
| 1777503926 | 20.56° C | 81% | - | 0 mm | - | - | - |
| 1777503326 | 20° C | 83% | - | 0 mm | - | - | - |
| 1777502726 | 19.44° C | 83% | - | 0.76 mm | - | - | - |
| 1777502126 | 18.89° C | 88% | - | 0.76 mm | - | - | - |
* Rain latest hour (hover to see other rain measurements)
** Current wind speed in m/s (hover to see current wind gust speed)